Location: Bay Ridge
(40.6340°N, 74.0146°W)
Time: 07:45:21
(UTC+00:00)

Cosmos 1802 Rocket - Pass Details

Date: 15 November 2019
Orbit: 953 x 1012 km, 82.9° (Epoch: 10 December)

Event Time Altitude Azimuth Distance (km) Brightness Sun altitude
Rises 10:58:29 0° 205° (SSW) 3,729 7.0 -8.6°
Reaches altitude 10° 11:01:09 10° 212° (SSW) 2,785 6.2 -8.2°
Maximum altitude 11:07:13 44° 283° (WNW) 1,377 4.4 -7.1°
Drops below altitude 10° 11:13:19 10° 354° (N) 2,794 6.2 -6.0°
Sets 11:16:01 0° 1° (N) 3,742 6.9 -5.5°
